Location: Keppel Henge
(44.7900°N, 80.9447°W)
Time: 18:42:39
(UTC-04:00)

Tiangong 2 - Pass Details

Date: 13 October 2017
Orbit: 388 x 391 km, 42.8° (Epoch: 23 October)

Event Time Altitude Azimuth Distance (km) Brightness Sun altitude
Exits shadow 05:53:30 52° 179° (S) 492 1.5 -19.1°
Maximum altitude 05:53:35 52° 171° (S) 491 1.5 -19.1°
Drops below altitude 10° 05:56:43 10° 93° (E) 1,422 5.1 -18.5°
Sets 05:58:50 0° 89° (E) 2,279 6.7 -18.2°
